Location: Auckland
(36.8670°S, 174.7670°E)
Time: 07:27:48
(UTC+12:00)

Hubble Space Telescope - Pass Details

Date: 02 July 2019
Orbit: 536 x 540 km, 28.5° (Epoch: 20 July)

Event Time Altitude Azimuth Distance (km) Brightness Sun altitude
Exits shadow 05:43:12 - 339° (NNW) 1,864 3.4 -21.6°
Reaches altitude 10° 05:43:32 10° 343° (NNW) 1,788 3.4 -21.5°
Maximum altitude 05:45:51 15° 17° (NNE) 1,516 3.4 -21.1°
Drops below altitude 10° 05:48:11 10° 52° (NE) 1,792 4.4 -20.6°
Sets 05:51:17 0° 76° (ENE) 2,686 6.0 -20.0°
